Regional Weather Roundup
Issued by NWS

Home | Current Version | Previous Version | Graphics & Text | Print | Product List | Glossary On
Versions: 1 2 3 4 5 6 7 8 9 10 11 12 13 14 15 16 17 18 19 20 21 22 23 24 25 26 27 28 29 30 31 32 33 34 35 36 37 38 39 40 41 42 43 44 45 46 47 48 49 50
000
ASUS43 KBIS 021710
RWRND

NORTH DAKOTA REGIONAL WEATHER ROUNDUP
NATIONAL WEATHER SERVICE BISMARCK ND
1200 PM CDT SUN AUG 02 2015

NOTE: "FAIR" INDICATES FEW OR NO CLOUDS BELOW 12,000 FEET WITH NO
SIGNIFICANT WEATHER AND/OR OBSTRUCTIONS TO VISIBILITY.


NDZ001>003-009>011-017-021800-
NORTHWEST NORTH DAKOTA

CITY           SKY/WX    TMP DP  RH WIND       PRES   REMARKS
WILLISTON      MOSUNNY   75  53  46 VRB7      30.01S
MINOT          MOSUNNY   72  51  47 N12       29.94R
MINOT AFB      SUNNY     74  51  43 N9        29.93R
$$

NDZ018>021-031>035-040>046-021800-
SOUTHWEST NORTH DAKOTA

CITY           SKY/WX    TMP DP  RH WIND       PRES   REMARKS
BISMARCK       MOSUNNY   76  56  49 NW13G22   29.95S
DICKINSON      SUNNY     74  53  48 N14       30.00S
GARRISON         N/A     72  56  57 N13G20    29.96R
HETTINGER ARPT SUNNY     77  48  35 N16       30.01S
$$

NDZ004>008-012>016-024-026-027-054-021800-
NORTHEAST NORTH DAKOTA

CITY           SKY/WX    TMP DP  RH WIND       PRES   REMARKS
GRAND FORKS    MOSUNNY   74  54  49 N13G23    29.81R
GRND FRKS AFB  MOSUNNY   72  55  54 NW12      29.83R
DEVILS LAKE    SUNNY     72  50  46 N17G23    29.88R
$$

NDZ022-023-025-028>030-036>039-047>053-021800-
SOUTHEAST NORTH DAKOTA

CITY           SKY/WX    TMP DP  RH WIND       PRES   REMARKS
FARGO          MOSUNNY   76  58  53 N20G25    29.81R
JAMESTOWN      PTSUNNY   71  58  63 N12       29.88R
$$



USA.gov is the U.S. government's official web portal to all federal, state and local government web resources and services.